Watertown, WI

8:39 PM CDT on May 22, 2018 (GMT -0500)
Watertown Municipal

Weather History for KRYV - November, 2012

Change the Weather History Date:

Wednesday, November 7, 2012

  Actual Average Record
Temperature  
Mean Temperature 37 °F -  
Max Temperature 40 °F 44 °F 70 °F (1949)
Min Temperature 34 °F 30 °F 2 °F (1991)
Degree Days  
Heating Degree Days 28    
Moisture  
Dew Point 37 °F    
Average Humidity 95    
Maximum Humidity 100    
Minimum Humidity 88    
Precipitation  
Precipitation 0.01 in - - ()
Sea Level Pressure  
Sea Level Pressure 30.06 in    
Wind  
Wind Speed 3 mph (North)    
Max Wind Speed 7 mph    
Max Gust Speed -    
Visibility 4 miles    
Events      
Averages and records for this station are not official NWS values.
T = Trace of Precipitation, MM = Missing Value Source: NWS Daily Summary

Daily Weather History Graph

Daily Weather History Graph

Search for Another Location

Airport or City:

Astronomy

Nov. 07, 2012 Rise Set
Actual Time 6:38 AM CST 4:38 PM CST
Civil Twilight 6:07 AM CST 5:08 PM CST
Nautical Twilight 5:33 AM CST 5:42 PM CST
Astronomical Twilight 5:00 AM CST 6:15 PM CST
Moon No Moon Rise 12:57 PM CST (11/7)
Length of Visible Light 11h 00m
Length of Day
10h 00m
Last Quarter, 43% of the Moon is Illuminated
Nov 7
Last Quarter
Nov 13
New
Nov 20
First Quarter
Nov 28
Full
Dec 6
Last Quarter

Hourly Weather History & Observations

Time (CST) Temp. Windchill Dew Point Humidity Pressure Visibility Wind Dir Wind Speed Gust Speed Precip Events Conditions
12:15 AM 36.0 °F 33.3 °F 35.6 °F 99% 29.89 in 2.0 mi East 3.5 mph - N/A   Overcast
12:35 AM 36.1 °F 33.5 °F 35.8 °F 99% 29.89 in 2.0 mi East 3.5 mph - N/A   Overcast
12:55 AM 36.5 °F - 36.1 °F 99% 29.89 in 1.5 mi Calm Calm - N/A   Overcast
1:15 AM 36.5 °F 33.9 °F 36.1 °F 99% 29.90 in 1.8 mi East 3.5 mph - N/A   Overcast
1:35 AM 36.5 °F - 36.1 °F 99% 29.91 in 1.5 mi Calm Calm - N/A   Overcast
1:55 AM 36.5 °F 33.9 °F 36.5 °F 100% 29.91 in 1.2 mi ENE 3.5 mph - N/A   Overcast
2:15 AM 36.5 °F 33.9 °F 36.5 °F 100% 29.92 in 1.2 mi NE 3.5 mph - N/A   Overcast
2:55 AM 36.5 °F 33.9 °F 36.5 °F 100% 29.92 in 1.0 mi NE 3.5 mph - N/A   Overcast
3:15 AM 36.5 °F 33.9 °F 36.5 °F 100% 29.93 in 1.0 mi NE 3.5 mph - N/A   Overcast
3:35 AM 36.5 °F 33.9 °F 36.5 °F 100% 29.94 in 1.0 mi NNE 3.5 mph - N/A   Overcast
3:55 AM 36.5 °F 33.9 °F 36.5 °F 100% 29.95 in 1.2 mi North 3.5 mph - N/A   Overcast
4:35 AM 36.5 °F 32.7 °F 36.5 °F 100% 29.96 in 1.0 mi North 4.6 mph - N/A   Overcast
4:55 AM 36.5 °F - 36.5 °F 100% 29.96 in 1.0 mi Calm Calm - N/A   Overcast
5:15 AM 36.5 °F 33.9 °F 36.5 °F 100% 29.98 in 1.5 mi NNE 3.5 mph - N/A   Overcast
5:35 AM 36.5 °F 33.9 °F 36.5 °F 100% 29.98 in 2.0 mi North 3.5 mph - N/A   Overcast
5:55 AM 36.5 °F 32.7 °F 36.1 °F 99% 29.99 in 2.5 mi North 4.6 mph - N/A   Overcast
6:15 AM 36.5 °F 33.9 °F 36.1 °F 99% 30.00 in 2.5 mi NNE 3.5 mph - N/A   Overcast
6:35 AM 35.8 °F 33.0 °F 35.6 °F 99% 30.00 in 2.0 mi NE 3.5 mph - N/A   Overcast
6:55 AM 34.9 °F 29.9 °F 34.7 °F 99% 30.02 in 1.2 mi North 5.8 mph - N/A   Overcast
7:15 AM 35.6 °F 29.9 °F 35.6 °F 100% 30.03 in 1.2 mi North 6.9 mph - N/A   Overcast
7:55 AM 36.1 °F 33.5 °F 35.6 °F 98% 30.04 in 1.5 mi North 3.5 mph - N/A   Overcast
8:15 AM 36.3 °F 30.8 °F 35.8 °F 98% 30.05 in 1.5 mi North 6.9 mph - N/A   Overcast
8:35 AM 36.7 °F 32.0 °F 35.8 °F 97% 30.06 in 1.8 mi North 5.8 mph - N/A   Overcast
8:55 AM 37.4 °F 33.8 °F 36.0 °F 95% 30.06 in 2.0 mi North 4.6 mph - N/A   Overcast
9:55 AM 38.5 °F 36.1 °F 37.0 °F 95% 30.08 in 2.0 mi NNE 3.5 mph - N/A   Overcast
10:15 AM 38.7 °F 36.3 °F 36.9 °F 93% 30.09 in 2.5 mi North 3.5 mph - N/A   Overcast
10:55 AM 39.2 °F 37.0 °F 37.2 °F 93% 30.09 in 2.5 mi NNW 3.5 mph - N/A   Overcast
11:35 AM 39.2 °F 35.9 °F 37.4 °F 93% 30.08 in 2.0 mi NW 4.6 mph - N/A   Overcast
11:55 AM 39.4 °F 35.2 °F 38.1 °F 95% 30.08 in 1.5 mi NW 5.8 mph - N/A   Overcast
12:15 PM 39.4 °F 36.1 °F 38.3 °F 96% 30.08 in 1.5 mi NW 4.6 mph - N/A   Overcast
12:35 PM 39.6 °F 37.4 °F 38.3 °F 95% 30.08 in 1.8 mi NW 3.5 mph - N/A   Overcast
12:55 PM 39.7 °F 37.6 °F 38.1 °F 94% 30.08 in 2.0 mi NNW 3.5 mph - N/A   Overcast
1:15 PM 40.1 °F - 37.9 °F 92% 30.08 in 2.5 mi Calm Calm - N/A   Overcast
1:35 PM 40.3 °F - 38.1 °F 92% 30.08 in 2.5 mi Calm Calm - N/A   Overcast
2:15 PM 40.5 °F 38.4 °F 37.8 °F 90% 30.08 in 3.0 mi NW 3.5 mph - N/A   Overcast
2:55 PM 40.6 °F - 37.8 °F 89% 30.09 in 3.0 mi Calm Calm - N/A   Overcast
3:15 PM 40.6 °F 38.6 °F 37.8 °F 89% 30.09 in 3.0 mi WNW 3.5 mph - N/A   Overcast
3:35 PM 40.3 °F 38.2 °F 38.3 °F 93% 30.09 in 3.0 mi NNW 3.5 mph - N/A   Overcast
3:55 PM 40.3 °F - 38.3 °F 93% 30.10 in 4.0 mi Calm Calm - N/A   Overcast
4:15 PM 40.3 °F - 37.6 °F 90% 30.10 in 4.0 mi Calm Calm - N/A   Overcast
4:35 PM 40.3 °F 38.2 °F 37.6 °F 90% 30.10 in 5.0 mi NW 3.5 mph - N/A   Overcast
4:55 PM 40.5 °F - 37.6 °F 89% 30.11 in 5.0 mi Calm Calm - N/A   Overcast
5:15 PM 40.5 °F - 37.8 °F 90% 30.11 in 5.0 mi Calm Calm - N/A   Overcast
5:35 PM 40.3 °F - 37.8 °F 91% 30.11 in 7.0 mi Calm Calm - N/A   Overcast
5:55 PM 40.3 °F 38.2 °F 37.4 °F 89% 30.12 in 7.0 mi WNW 3.5 mph - N/A   Overcast
6:15 PM 40.1 °F - 37.2 °F 89% 30.12 in 7.0 mi Calm Calm - N/A   Overcast
6:35 PM 40.1 °F - 36.9 °F 88% 30.13 in 7.0 mi Calm Calm - N/A   Overcast
6:55 PM 39.7 °F - 36.7 °F 89% 30.13 in 7.0 mi Calm Calm - N/A   Overcast
7:15 PM 39.6 °F - 36.5 °F 89% 30.13 in 10.0 mi Calm Calm - N/A   Overcast
7:35 PM 39.4 °F - 36.5 °F 89% 30.13 in 7.0 mi Calm Calm - N/A   Overcast
8:15 PM 39.2 °F 37.0 °F 36.5 °F 90% 30.14 in 7.0 mi NNW 3.5 mph - N/A   Overcast
8:35 PM 39.2 °F 35.9 °F 36.5 °F 90% 30.14 in 7.0 mi NNW 4.6 mph - N/A   Overcast
8:55 PM 39.0 °F - 36.5 °F 91% 30.14 in 7.0 mi Calm Calm - N/A   Overcast
9:15 PM 38.5 °F - 36.5 °F 93% 30.14 in 7.0 mi Calm Calm - N/A   Overcast
9:35 PM 38.5 °F - 36.5 °F 93% 30.14 in 7.0 mi Calm Calm - N/A   Overcast
9:55 PM 38.3 °F - 36.5 °F 93% 30.14 in 5.0 mi Calm Calm - N/A   Overcast
10:15 PM 38.3 °F - 36.5 °F 93% 30.14 in 5.0 mi Calm Calm - N/A   Overcast
10:35 PM 38.3 °F - 36.1 °F 92% 30.14 in 5.0 mi Calm Calm - N/A   Overcast
10:55 PM 37.6 °F - 36.1 °F 95% 30.14 in 7.0 mi Calm Calm - N/A   Overcast
11:15 PM 37.9 °F - 36.3 °F 94% 30.14 in 5.0 mi Calm Calm - N/A   Overcast
11:35 PM 37.9 °F - 36.1 °F 93% 30.14 in 5.0 mi Calm Calm - N/A   Overcast
11:55 PM 36.7 °F - 36.1 °F 98% 30.13 in 4.0 mi Calm Calm - N/A   Overcast